Overview Statistics Trail Chart Weather Telemetry Raw packets
 

This is the latest recevied weather packets stored in our database for station/object K4PAR-1. If no packets are shown the sender has not sent any weather packets the latest 10 day(s).

<< 19 20 21 22 23 24 25 >>
Time Temp. Humidity Pressure Rain* Wind** Luminosity Snow
1788458712 34.44° C - - 0 mm 1.34 m/s, 229° - -
1788458569 35.56° C - - 0 mm 1.79 m/s, 163° - -
1788458469 35.56° C - - 0 mm 1.79 m/s, 163° - -
1788458266 36.11° C - - 0 mm 0 m/s - -
1788458226 36.11° C - - 0 mm 0 m/s - -
1788457741 34.44° C - - 0 mm 0.45 m/s, 114° - -
1788457499 35.56° C - - 0 mm 0 m/s - -
1788457057 33.89° C - - 0 mm 2.24 m/s, 249° - -
1788457013 33.89° C - - 0 mm 2.24 m/s, 249° - -
1788456770 34.44° C - - 0 mm 1.34 m/s, 217° - -
1788456574 35.56° C - - 0 mm 0 m/s - -
1788456528 35.56° C - - 0 mm 0 m/s - -
1788456285 35.56° C - - 0 mm 0 m/s - -
1788456043 35.56° C - - 0 mm 0.89 m/s, 304° - -
1788455831 33.33° C - - 0 mm 2.24 m/s, 359° - -
1788455800 33.33° C - - 0 mm 2.24 m/s, 359° - -
1788455315 34.44° C - - 0 mm 1.34 m/s, 235° - -
1788454829 34.44° C - - 0 mm 0 m/s - -
1788454587 33.33° C - - 0 mm 1.79 m/s, 271° - -
1788453945 33.33° C - - 0 mm 1.79 m/s, 63° - -
1788453859 33.33° C - - 0 mm 1.79 m/s, 63° - -
1788453591 34.44° C - - 0 mm 0.45 m/s, 270° - -
1788453374 34.44° C - - 0 mm 0.45 m/s, 270° - -
1788453131 34.44° C - - 0 mm 0 m/s - -
1788452973 32.78° C - - 0 mm 1.34 m/s, 273° - -

* Rain latest hour (hover to see other rain measurements)
** Current wind speed in m/s (hover to see current wind gust speed)